TimeCST,TemperatureF,Dew PointF,Humidity,Sea Level PressureIn,VisibilityMPH,Wind Direction,Wind SpeedMPH,Gust SpeedMPH,PrecipitationIn,Events,Conditions,WindDirDegrees,DateUTC
12:53 AM,19.9,12.0,71,30.37,10.0,Calm,Calm,-,N/A,,Clear,0,2013-01-22 06:53:00
1:53 AM,18.0,12.9,81,30.35,10.0,East,3.5,-,N/A,,Clear,80,2013-01-22 07:53:00
2:53 AM,21.9,12.9,68,30.35,10.0,East,4.6,-,N/A,,Clear,100,2013-01-22 08:53:00
3:53 AM,23.0,12.9,65,30.34,10.0,East,3.5,-,N/A,,Partly Cloudy,80,2013-01-22 09:53:00
4:53 AM,21.9,12.9,68,30.34,10.0,ENE,3.5,-,N/A,,Clear,60,2013-01-22 10:53:00
5:53 AM,19.9,14.0,78,30.35,10.0,ENE,3.5,-,N/A,,Clear,70,2013-01-22 11:53:00
6:53 AM,19.9,12.9,74,30.36,10.0,East,4.6,-,N/A,,Clear,80,2013-01-22 12:53:00
7:53 AM,19.9,12.9,74,30.37,10.0,ENE,4.6,-,N/A,,Clear,70,2013-01-22 13:53:00
8:53 AM,24.1,14.0,65,30.34,10.0,East,12.7,-,N/A,,Clear,100,2013-01-22 14:53:00
9:53 AM,28.0,17.1,63,30.34,10.0,ESE,6.9,-,N/A,,Overcast,110,2013-01-22 15:53:00
10:53 AM,28.9,16.0,58,30.38,10.0,East,6.9,-,N/A,,Overcast,80,2013-01-22 16:53:00
11:53 AM,30.9,17.1,57,30.36,10.0,East,6.9,-,N/A,,Overcast,100,2013-01-22 17:53:00
12:53 PM,33.1,18.0,54,30.32,10.0,East,5.8,-,N/A,,Overcast,80,2013-01-22 18:53:00
1:53 PM,36.0,19.0,50,30.30,10.0,ENE,8.1,-,N/A,,Overcast,70,2013-01-22 19:53:00
2:53 PM,37.9,21.0,51,30.27,10.0,SE,5.8,-,N/A,,Overcast,130,2013-01-22 20:53:00
3:53 PM,39.0,21.0,49,30.25,10.0,SE,5.8,-,N/A,,Clear,130,2013-01-22 21:53:00
4:53 PM,37.9,21.0,51,30.24,10.0,ESE,6.9,-,N/A,,Clear,110,2013-01-22 22:53:00
5:53 PM,33.1,21.0,61,30.25,10.0,East,4.6,-,N/A,,Clear,90,2013-01-22 23:53:00
6:53 PM,32.0,19.9,61,30.27,10.0,East,4.6,-,N/A,,Clear,80,2013-01-23 00:53:00
7:53 PM,28.9,19.0,67,30.26,10.0,ESE,4.6,-,N/A,,Clear,110,2013-01-23 01:53:00
8:53 PM,28.0,19.0,69,30.27,10.0,East,4.6,-,N/A,,Clear,80,2013-01-23 02:53:00
9:53 PM,27.0,18.0,69,30.28,10.0,East,3.5,-,N/A,,Clear,90,2013-01-23 03:53:00
10:53 PM,26.1,18.0,71,30.29,10.0,Calm,Calm,-,N/A,,Clear,0,2013-01-23 04:53:00
11:53 PM,25.0,18.0,75,30.29,10.0,East,3.5,-,N/A,,Clear,90,2013-01-23 05:53:00